Overview Statistics Trail Chart Weather Telemetry Raw packets
 

This is the latest recevied weather packets stored in our database for station/object K5FEP. If no packets are shown the sender has not sent any weather packets the latest 10 day(s).

<< 75 76 77 78 79 80 81 >>
Time Temp. Humidity Pressure Rain* Wind** Luminosity Snow
1788094904 22.22° C 95% 1023.7 hPa 0 mm - 228 W/m² -
1788094603 21.67° C 96% 1023.4 hPa 0 mm - 181 W/m² -
1788094298 21.67° C 96% 1023.4 hPa 0 mm - 146 W/m² -
1788093996 21.67° C 97% 1023.6 hPa 0 mm - 142 W/m² -
1788093691 21.67° C 97% 1023.4 hPa 0 mm - 150 W/m² -
1788093389 21.11° C 97% 1023.6 hPa 0 mm - 134 W/m² -
1788093084 21.11° C 97% 1023.4 hPa 0 mm - 122 W/m² -
1788092781 21.11° C 97% 1023.4 hPa 0 mm - 107 W/m² -
1788092476 20.56° C 97% 1023.3 hPa 0 mm - 101 W/m² -
1788092173 20.56° C 97% 1023.5 hPa 0 mm - 87 W/m² -
1788091871 20.56° C 97% 1023.4 hPa 0 mm - 106 W/m² -
1788091566 20.56° C 97% 1023.2 hPa 0 mm - 85 W/m² -
1788091263 20.56° C 98% 1023.2 hPa 0 mm - 80 W/m² -
1788090959 20° C 97% 1023.2 hPa 0 mm - 75 W/m² -
1788090657 20° C 97% 1023.2 hPa 0 mm - 69 W/m² -
1788090351 19.44° C 97% 1023 hPa 0 mm - 59 W/m² -
1788090050 19.44° C 97% 1022.8 hPa 0 mm - 55 W/m² -
1788089745 19.44° C 97% 1022.8 hPa 0 mm - 44 W/m² -
1788089440 18.89° C 97% 1023 hPa 0 mm - 41 W/m² -
1788089136 18.89° C 97% 1022.7 hPa 0 mm - 31 W/m² -
1788088833 18.89° C 97% 1023.1 hPa 0 mm - 24 W/m² -
1788088528 18.89° C 97% 1022.7 hPa 0 mm - 18 W/m² -
1788088224 18.89° C 97% 1022.6 hPa 0 mm - 14 W/m² -
1788087924 18.89° C 97% 1022.7 hPa 0 mm - 11 W/m² -
1788087619 19.44° C 97% 1022.7 hPa 0 mm - 8 W/m² -

* Rain latest hour (hover to see other rain measurements)
** Current wind speed in m/s (hover to see current wind gust speed)